User: anonymous   Login
Location: Tyler Bend Campground
(35.9875°N, 92.7606°W)
Time: 13:30:27
(UTC-06:00)
Language:

Iridium 39 - Orbit

View from above orbital plane
View from above orbital plane
View from above satellite
View from above satellite

Ground track
Ground track

The orbit data is extracted from the following two-line orbital elements,

1 25042U 97069D   14352.54657659  .00000678  00000-0  23515-3 0   964
2 25042 086.3969 043.2309 0002095 114.5500 245.5915 14.34221053895647
Epoch (UTC): 18 December 2014 13:07:04
Eccentricity: 0.0002095
inclination: 86.3969°
perigee height: 776 km
apogee height: 779 km
right ascension of ascending node: 43.2309°
argument of perigee: 114.5500°
revolutions per day: 14.34221053
mean anomaly at epoch: 245.5915°
orbit number at epoch: 89564

The dashed part of the orbit path shows where the satellite is in the earth's shadow,  

DLR